Погода в Джикимде

Погода в Джикимде : погода сейчас, прогноз погоды и архив. Всё, что Вы хотите узнать о погоде в Джикимде!

Поиск расширенной информации на нашем сайте:

Другие новости

Новости СМИ2

Главная страница сайта

Новости сайта

03.07.2017

Напоминаем, что на нашем специализированном сайте Метеоцентр.Азия вы можете получить высокодетализированные автоматические прогнозы погоды по пунктам России, СНГ и мира в авиационном формате (включающие направление и скорость ветра, видимость, явления погоды, количество и форму облачности, нижнюю и верхнюю границу облачности).


Погода в Джикимде - сегодня

Время (UTC), дата Ветер
(°,м/с) 
Видим.   Явления Облачность Т
(°С)
Тd
(°С)
f(%) Тe
(°С)
Pmin
(гПа)
dP
(гПа)
Po
(мм)
O2
(г/м3)
Тmin Tmax R s Состояние
почвы
15 13.08.18 270 (З) 20000 м    ясно 
+16.7 +12.6 77 +23  1011  1.4  743  280           
18 13.08.18 270 (З) 20000 м    ясно 
+13.4 +10.7 84 +17  1011.9  0.6  743  283           
21 13.08.18 тихо ()   20000 м    ясно 
+4.6 +4.1 97 +5  1014.6  1.8  745  294           
00 14.08.18 320 (СЗ) 20000 м    1/0 верхняя 
[Ci fib]
+10.6 +9.6 94 +13  1014.9  0.8  745  287  +4.6        сухая 
03 14.08.18 тихо ()   20000 м    ясно 
+20.9 +12.2 57 +25  1013.9  -0.1  745  277           
06 14.08.18 тихо ()   20000 м    ясно 
+27.2 +13.1 42 +33  1013.1  -0.5  745  270           
09 14.08.18 тихо ()   20000 м    3/0 верхняя 
[Ci fib]
+26.6 +14 46 +34  1009.6  728  264           
12 14.08.18 тихо ()   20000 м    3/0 верхняя 
[Ci fib]
+22.2 +10.4 47 +24  1013.3  0.4  745  276    +28.3       
15 14.08.18 тихо ()   20000 м    ясно 
+15.2 +10.5 73 +17  1014.9  1.1  746  283           
18 14.08.18 тихо ()   20000 м    ясно 
+12.8 +10.7 87 +15  1015.9  0.9  746  285           
21 14.08.18 тихо ()   20000 м    ясно 
+5.1 +4.6 97 +5  1016.5  746  294           
03 15.08.18 тихо ()   20000 м    10/0 верхняя 
[Ci fib]
+23.7 +14.4 56 +32  1012.1  -2.3  744  273           
06 15.08.18 тихо ()   20000 м    10/0 верхняя 
[Cs]
+30.7 +15.8 41 +41  1009.6  -2.1  742  266           
09 15.08.18 180 (Ю) 20000 м  дым  10/0 верхняя 
[Cs]
+32.1 +13.2 32 +38  1007.4  -2.1  741  265           
15 15.08.18 тихо ()   20000 м  дым  10/0 средняя, верхняя 
[Ac trans|Ci fib]
+16.9 +15.5 91 +27  1007.7  740  278           
21 15.08.18 тихо ()   20000 м    10/0 средняя, верхняя 
[Ac trans|Cs]
+14.7 +14.5 99 +23  1006  -1.6  739  280           
03 16.08.18 270 (З) 10 км  дым  10/0 средняя, верхняя 
[Ac trans|Ci fib]
+22.4 +16.5 69 +34  1004  -1.6  738  271           
06 16.08.18 тихо ()   20000 м  дым  10/0 средняя 
[Ac As]
+24.9 +19.3 71 +43  1002.9  -1  737  268           
09 16.08.18 тихо ()   20000 м  дым  10/0 средняя 
[Frnb|As op]
+26 +22.6 82 +53  1009.7  0.1  726  261           
15 16.08.18 190 (Ю) 20000 м  {дождь}  10/0 средняя 
[Ac trans]
+19.5 +16.2 81 +32  1003.3  737  274           
18 16.08.18 190 (Ю) 20000 м  {дождь}  10/0 средняя 
[Ac trans]
+17.5 +14.9 85 +27  1005.1  1.7  739  277           
21 16.08.18 тихо ()   20000 м    10/0 средняя 
[Ac As]
+14.4 +12.8 90 +20  1002.5  -2.7  737  279           
03 17.08.18 230 (ЮЗ) 20000 м  {дождь}  10/10 600 м кучево-дожд. 
[Cb cap]
+15.4 +11.9 80 +20  1003.6  1.1  737  279           
06 17.08.18 180 (Ю) 20000 м  {дождь}  10/10 600 м кучево-дожд. 
[Cb cap]
+15.7 +12.8 83 +22  1003.7  737  278           
09 17.08.18 тихо ()   20000 м    9/5 600 м кучево-дожд., средняя 
[Cb cap|Ac trans]
+17.4 +13.6 78 +24  1003  -0.4  737  276           
Время (UTC), дата Ветер
(°,м/с) 
Видим.   Явления Облачность Т
(°С)
Тd
(°С)
f(%) Тe
(°С)
Pmin
(гПа)
dP
(гПа)
Po
(мм)
O2
(г/м3)
Тmin Tmax R s Состояние
почвы

Для получения пояснительной информации подведите курсор к названию столбца.

ПОГОДА в Джикимде - архив

Всё, что Вы хотите узнать о погоде в Джикимде - удобно и подробно!

Выберите нужную дату (начиная с 1 января 2015* года) и нажмите кнопку "Найти".
Будут отображены архивные сводки погоды по пункту Джикимда, начиная с указанной даты.


Отображать данные в формате CSV (для использования в таблицах Excel)


Внимание! Наш архив погоды предназначен исключительно для личного некоммерческого использования в познавательных целях. Если Вам необходимы официальные справки о состоянии погоды (для производственных, юридических, коммерческих и т.п. целей), обращайтесь в органы Росгидромета.

*Примечание: данная дата относится к архиву по метеостанциям СССР (Россия, СНГ, Балтия).
Архив по метеостанциям Зарубежной Европы и Азии (кроме Китая) хранится 10 дней, по другим регионам земного шара (Китай, Африка, Америка, Австралия, Океания) - 1 день.

Джикимда - район местоположения метеостанции


Название, широта, долгота, высота метеостанции:
Джикимда 59°ш. 121.8°д. 170 м над ур. моря [Российская Федерация]

Дополнительная информация

В oтличие oт бoльшинства пoгoдных сайтoв мы публикуем пoдрoбную метеoинфoрмацию в детальнoм прoфессиoнальнoм фoрмате.

Характеристики температуры и влажнoсти вoздуха измеряются на высoте 2 м в тени вдали oт зданий и деревьев.
Скoрoсть ветра измеряется на высoте 10 м (на урoвне рoста челoвека скoрoсть ветра ниже в 1.5-2 раза). Если метеoстанция нахoдится в гoрoде или в лесу, тo скoрoсть ветра занижена на 2-4 м/с пo сравнению с oткрытым местoм. Скoрoсть ветра над акватoриями крупных рек и oзёр, а также на вершинах хoлмoв на 2-5 м/с выше, чем в oбычных услoвиях.
Атмoсфернoе давление в разных тoчках местнoсти мoжет значительнo oтличаться oт давления на метеoстанции, в зависимoсти oт услoвий рельефа (при пoдъёме на 10 м давление пoнижается примернo на 1 мм рт.ст.).